Showing default

INTELSAT 33E, 41748

Orbit data source: Space-Track

INTELSAT 33E, 41748 is a payload satellite owned by Intelsat SA (US) (US) in GEO that was launched on Wed, 24 Aug 2016 UTC via an ARIANE 5ECA launch vehicle from the French Guiana (FRGUI). Payload-class satellites include a variety of spacecraft equipped with specific instruments for various scientific and technological missions. These include communications satellites like Starlink; space stations such as the ISS; scientific satellites like the Hubble; Earth observation satellites from companies like Planet Labs, Umbra, and HawkEye 360; GPS; miniature CubeSats for education and research; and military/defense satellites.

Not visible in the next 10 days
Identifier
41748, 2016-053B
Orbit
GEO
Last TLE update
15 hours ago
Origin
Manufacturer
Boeing/ES
Mission
Non-operational Commercial Communications
Bus & Motor
BSS-702MP, LEROS-2B
Mass
6,552 kg wet, ~2,946 kg dry
Launch date (UTC)
2016-08-24 (9 years ago)
Launch vehicle
ARIANE 5ECA
Launch site
French Guiana (FRGUI)
Object type
Payload
Rocket body
Debris
Shape & HBR
Box + 2 Pan, 44 m
Radar Cross Section
59.953 m², Large (>1 m²)

Expand to show TLE details & history

TLE from 15 hours ago
0 INTELSAT 33E
1 41748U 16053B   25132.94836387 -.00000335  00000-0  00000-0 0  9992
2 41748   0.5386  91.5520 0022153 179.1350  66.5676  1.00312467 32239
Epoch: 2025-05-12T22:45Z
Definitive object data (Epoch: 2025-05-12T22:45:38.638Z)
Latitude
-0.47209°
Longitude
125.11034°
Altitude
35,738.176 km
Speed
3.078 km/s
True Right ascension
22h 29m 54s
True Declination
0° 28' 18"
Sunlit
Object was in daylight at TLE epoch
Visualization TLE readout
Latitude
0.48655°
Longitude
-12.10744°
Altitude
35,742.781 km
Speed
3.077 km/s
Apparent Right ascension
13h 02m 07s
Apparent Declination
-4° 40' 22"
Sunlit
Object is in daylight
Visualization observer readout
Local Sidereal Time
22:01:38
Azimuth
298.833° NW
Elevation
-36.276°
Doppler factor
1
Orbital elements
Apogee altitude
35,869.649 km
Perigee altitude
35,682.88 km
Semi-major axis
42,154.402 km
Eccentricity
0.0022153
Inclination
0.5386°
RAAN
91.552°
Arg. of periapsis
179.135°
True anomaly
66.80078°
Mean anomaly
66.5676°
Eccentric anomaly
66.68416°
Mean motion
0.25077 °/min
BSTAR
Unknown
Orbital period
1435.57 mins
Loading historical data...
41748 neighbors
Loading maneuver chart data...
Loading SW <> Apogee altitude chart data...
Loading historical data...
Loading historical data...
Loading historical data...
Loading historical data...
Loading historical data...
Loading historical data...
Loading historical data...

INTELSAT 33E Visibility forecast

Observer location: undefined°, undefined°

INTELSAT 33E is not visible in the next 10 days
Span
Click to sort rows by Start time (UTC) header in descending order
Start Az.
Max El. time (UTC)
Max El. Az.
Max El.
End time (UTC)
End Az.
|